Date String (YYYY-MM-DD hh:mm:ss) UTC,Instrument flags,absolute air pressure of the measurement (hPa),sample flow rate (lpm),inlet stack bypass flow (lpm),air temperature of the measurement (°C),ambient temperature measured by the external sensor (°C),aerosol sample conditioner tube jacket temperature (°C),OPC LED temperature (°C),internal box temperature (°C),relative humidity of the measurement (%),span deviation,mass concentration of particles derived from Lorenz-Mie calculation of OPC scattering (μg/m³),mass concentration of particles derived from Lorenz-Mie calculation of OPC scattering (μg/m³),mass concentration of particles derived from Lorenz-Mie calculation of OPC scattering (μg/m³)
DateTimeUTC,F1_M11,P_M11,Q1_M11,Q2_M11,T1_M11,T2_M11,T3_M11,T4_M11,T5_M11,U1_M11,ZSPAN_M11,X2_M11,X0_M11,X1_M11
2023-11-08 12:00:00,SystemResetWarning,0826.4,5.00,000.00,026.8,025.8,000.0,035.2,028.3,14.7,0000.0,0002.47,0008.15,0001.55
2023-11-08 12:01:00,SystemResetWarning,0826.5,4.99,000.00,026.8,025.8,000.0,035.2,028.3,14.7,0000.0,0002.48,0008.29,0001.57
2023-11-08 12:02:00,SystemResetWarning,0826.6,4.99,000.00,026.8,025.8,000.0,035.2,028.2,14.7,0000.0,0002.56,0008.93,0001.58
2023-11-08 12:03:00,SystemResetWarning,0826.6,5.00,000.00,026.8,025.8,000.0,035.2,028.2,14.7,0000.0,0002.57,0008.93,0001.59
2023-11-08 12:04:00,SystemResetWarning,0826.6,5.00,000.00,026.8,025.8,000.0,035.2,028.3,14.7,0000.0,0002.60,0008.81,0001.61
2023-11-08 12:05:00,SystemResetWarning,0826.6,5.00,000.00,026.8,025.8,000.0,035.2,028.3,14.7,0000.0,0002.57,0008.51,0001.63
2023-11-08 12:06:00,SystemResetWarning,0826.6,5.00,000.00,026.8,025.8,000.0,035.2,028.2,14.7,0000.0,0002.59,0008.49,0001.64
2023-11-08 12:07:00,SystemResetWarning,0826.6,5.00,000.00,026.8,025.8,000.0,035.2,028.2,14.7,0000.0,0002.59,0008.41,0001.66
2023-11-08 12:08:00,SystemResetWarning,0826.7,5.00,000.00,026.8,025.8,000.0,035.2,028.3,14.7,0000.0,0002.65,0008.20,0001.68
2023-11-08 12:09:00,SystemResetWarning,0826.8,5.00,000.00,026.8,025.8,000.0,035.2,028.2,14.8,0000.0,0002.75,0008.28,0001.73
2023-11-08 12:10:00,SystemResetWarning,0826.7,5.00,000.00,026.8,025.8,000.0,035.2,028.3,14.8,0000.0,0002.76,0008.27,0001.74
2023-11-08 12:11:00,SystemResetWarning,0826.8,5.00,000.00,026.8,025.8,000.0,035.2,028.3,15.0,0000.0,0002.80,0008.62,0001.75
2023-11-08 12:12:00,SystemResetWarning,0826.8,5.00,000.00,026.8,025.8,000.0,035.2,028.2,15.0,0000.0,0002.84,0008.12,0001.77
2023-11-08 12:13:00,SystemResetWarning,0826.8,5.00,000.00,026.8,025.8,000.0,035.2,028.2,15.0,0000.0,0002.80,0007.64,0001.77
2023-11-08 12:14:00,SystemResetWarning,0826.8,5.01,000.00,026.8,025.8,000.0,035.2,028.3,15.0,0000.0,0002.82,0007.49,0001.80
2023-11-08 12:15:00,SystemResetWarning,0826.8,5.00,000.00,026.8,025.8,000.0,035.2,028.3,15.1,0000.0,0002.81,0007.60,0001.80
2023-11-08 12:16:00,SystemResetWarning,0826.8,5.01,000.00,026.8,025.8,000.0,035.2,028.2,15.1,0000.0,0002.90,0007.75,0001.84
2023-11-08 12:17:00,SystemResetWarning,0826.8,5.00,000.00,026.8,025.8,000.0,035.2,028.3,15.2,0000.0,0002.94,0007.82,0001.88
2023-11-08 12:18:00,SystemResetWarning,0826.8,5.01,000.00,026.8,025.8,000.0,035.2,028.3,15.3,0000.0,0003.01,0008.79,0001.91
2023-11-08 12:19:00,SystemResetWarning,0826.9,5.00,000.00,026.8,025.8,000.0,035.2,028.2,15.3,0000.0,0003.03,0009.78,0001.95
2023-11-08 12:20:00,SystemResetWarning,0826.9,5.00,000.00,026.8,025.8,000.0,035.2,028.2,15.4,0000.0,0003.02,0009.60,0001.99
2023-11-08 12:21:00,SystemResetWarning,0826.9,5.00,000.00,026.8,025.8,000.0,035.2,028.2,15.4,0000.0,0003.06,0009.00,0002.04
2023-11-08 12:22:00,SystemResetWarning,0826.9,4.99,000.00,026.8,025.8,000.0,035.2,028.2,15.4,0000.0,0003.07,0008.91,0002.08
2023-11-08 12:23:00,SystemResetWarning,0826.9,4.99,000.00,026.8,025.8,000.0,035.2,028.2,15.5,0000.0,0003.09,0009.18,0002.12
2023-11-08 12:24:00,SystemResetWarning,0826.9,4.99,000.00,026.8,025.7,000.0,035.2,028.2,15.5,0000.0,0003.16,0009.53,0002.17
2023-11-08 12:25:00,SystemResetWarning,0826.9,5.01,000.00,026.8,025.7,000.0,035.2,028.2,15.6,0000.0,0003.17,0009.34,0002.22
2023-11-08 12:26:00,SystemResetWarning,0826.9,5.01,000.00,026.8,025.7,000.0,035.2,028.2,15.6,0000.0,0003.22,0009.81,0002.27
2023-11-08 12:27:00,SystemResetWarning,0826.9,5.00,000.00,026.8,025.7,000.0,035.2,028.2,15.7,0000.0,0003.26,0010.58,0002.32
2023-11-08 12:28:00,SystemResetWarning,0827.0,5.00,000.00,026.8,025.7,000.0,035.2,028.2,15.7,0000.0,0003.30,0010.92,0002.36
2023-11-08 12:29:00,SystemResetWarning,0827.0,4.99,000.00,026.8,025.8,000.0,035.2,028.2,15.7,0000.0,0003.34,0010.72,0002.40
2023-11-08 12:30:00,SystemResetWarning,0827.1,4.99,000.00,026.8,025.8,000.0,035.2,028.2,15.7,0000.0,0003.36,0009.30,0002.43
2023-11-08 12:31:00,SystemResetWarning,0827.1,5.00,000.00,026.8,025.7,000.0,035.2,028.2,15.6,0000.0,0003.43,0009.77,0002.47
2023-11-08 12:32:00,SystemResetWarning,0827.2,5.00,000.00,026.8,025.8,000.0,035.2,028.2,15.7,0000.0,0003.46,0009.99,0002.51
2023-11-08 12:33:00,SystemResetWarning,0827.1,5.00,000.00,026.8,025.7,000.0,035.2,028.2,15.8,0000.0,0003.47,0009.94,0002.52
2023-11-08 12:34:00,SystemResetWarning,0827.1,5.00,000.00,026.8,025.8,000.0,035.2,028.2,15.8,0000.0,0003.49,0009.99,0002.55
2023-11-08 12:35:00,SystemResetWarning,0827.2,5.01,000.00,026.8,025.8,000.0,035.2,028.2,15.9,0000.0,0003.54,0010.02,0002.59
2023-11-08 12:36:00,SystemResetWarning,0827.2,5.00,000.00,026.8,025.8,000.0,035.2,028.2,15.9,0000.0,0003.58,0010.26,0002.62
2023-11-08 12:37:00,SystemResetWarning,0827.3,4.99,000.00,026.8,025.8,000.0,035.2,028.2,15.7,0000.0,0003.60,0009.96,0002.66
2023-11-08 12:38:00,SystemResetWarning,0827.3,5.00,000.00,026.7,025.8,000.0,035.2,028.2,15.6,0000.0,0003.64,0009.18,0002.70
2023-11-08 12:39:00,SystemResetWarning,0827.4,5.00,000.00,026.7,025.7,000.0,035.2,028.2,15.6,0000.0,0003.65,0008.94,0002.71
2023-11-08 12:40:00,SystemResetWarning,0827.4,5.00,000.00,026.7,025.7,000.0,035.2,028.1,15.7,0000.0,0003.61,0008.95,0002.70
2023-11-08 12:41:00,SystemResetWarning,0827.4,4.99,000.00,026.7,025.7,000.0,035.2,028.1,15.7,0000.0,0003.62,0008.96,0002.70
2023-11-08 12:42:00,SystemResetWarning,0827.4,4.99,000.00,026.7,025.7,000.0,035.2,028.1,15.8,0000.0,0003.59,0008.82,0002.67
2023-11-08 12:43:00,SystemResetWarning,0827.4,4.99,000.00,026.7,025.7,000.0,035.1,028.1,15.8,0000.0,0003.57,0009.44,0002.64
2023-11-08 12:44:00,SystemResetWarning,0827.3,5.00,000.00,026.7,025.7,000.0,035.1,028.1,15.9,0000.0,0003.59,0009.51,0002.65
2023-11-08 12:45:00,SystemResetWarning,0827.4,5.01,000.00,026.7,025.7,000.0,035.1,028.1,15.9,0000.0,0003.63,0009.24,0002.63
2023-11-08 12:46:00,SystemResetWarning,0827.4,5.00,000.00,026.7,025.6,000.0,035.1,028.1,16.0,0000.0,0003.59,0009.20,0002.60
2023-11-08 12:47:00,SystemResetWarning,0827.4,4.99,000.00,026.7,025.6,000.0,035.1,028.1,16.1,0000.0,0003.58,0009.34,0002.58
2023-11-08 12:48:00,SystemResetWarning,0827.4,5.00,000.00,026.7,025.6,000.0,035.1,028.0,16.1,0000.0,0003.57,0009.33,0002.56
2023-11-08 12:49:00,SystemResetWarning,0827.4,5.00,000.00,026.7,025.5,000.0,035.1,028.1,16.2,0000.0,0003.53,0009.30,0002.53
2023-11-08 12:50:00,SystemResetWarning,0827.4,5.00,000.00,026.7,025.5,000.0,035.1,028.0,16.2,0000.0,0003.52,0009.43,0002.51
2023-11-08 12:51:00,SystemResetWarning,0827.4,5.00,000.00,026.6,025.5,000.0,035.1,028.0,16.2,0000.0,0003.56,0009.61,0002.53
2023-11-08 12:52:00,SystemResetWarning,0827.5,5.00,000.00,026.6,025.5,000.0,035.1,028.0,16.3,0000.0,0003.60,0009.86,0002.55
2023-11-08 12:53:00,SystemResetWarning,0827.6,5.00,000.00,026.6,025.5,000.0,035.1,028.0,16.2,0000.0,0003.63,0010.49,0002.57
2023-11-08 12:54:00,SystemResetWarning,0827.7,5.00,000.00,026.6,025.5,000.0,035.1,028.0,16.2,0000.0,0003.63,0009.90,0002.61
2023-11-08 12:55:00,SystemResetWarning,0827.7,5.00,000.00,026.6,025.5,000.0,035.1,028.0,16.1,0000.0,0003.63,0009.61,0002.65
2023-11-08 12:56:00,SystemResetWarning,0827.6,5.00,000.00,026.6,025.5,000.0,035.1,028.0,16.1,0000.0,0003.64,0010.13,0002.67
2023-11-08 12:57:00,SystemResetWarning,0827.5,5.00,000.00,026.6,025.5,000.0,035.1,028.0,16.2,0000.0,0003.63,0009.93,0002.71
2023-11-08 12:58:00,SystemResetWarning,0827.5,5.00,000.00,026.6,025.5,000.0,035.0,028.0,16.3,0000.0,0003.65,0009.56,0002.73
2023-11-08 12:59:00,SystemResetWarning,0827.6,4.99,000.00,026.6,025.5,000.0,035.0,028.0,16.3,0000.0,0003.64,0009.67,0002.75
